Location: Unspecified
(51.5147°N, 7.4673°E)
Time: 16:56:22
(UTC+01:00)

Vanguard 2 Rocket - Visible Passes

Search period start: 10 February 2026 00:00
Search period end: 20 February 2026 00:00
Orbit: 553 x 3286 km, 32.9° (Epoch: 10 February)

Date Brightness Start Highest point End Pass type
(mag) Time Alt. Az. Time Alt. Az. Time Alt. Az.
10 Feb 9.2 19:07:18 10° SW 19:10:18 13° SSW 19:12:50 10° S visible
12 Feb 9.5 19:09:54 10° SW 19:12:33 12° SSW 19:14:50 10° S visible
14 Feb 9.7 19:13:18 10° SW 19:14:39 10° SW 19:15:54 10° SSW visible
